FW2397 Weather Reports


time (UTC)temp
C
wind
direction
speed
KPH
gust
KPH
rain 1hr
cm
rain 24hr
cm
rain mn
cm
humidity
%
barometer
mb
20200531070111 26 84 12.9 17.7 0.00 0.00 0.00 48 1013.9
20200531064618 26 70 11.3 22.5 0.00 0.00 0.00 50 1013.9
20200531063130 26 77 14.5 20.9 0.00 0.00 0.00 51 1014.1
20200531061551 26 80 9.7 19.3 0.00 0.00 0.00 51 1014.1
20200531060059 26 78 11.3 20.9 0.00 0.00 0.00 51 1014.2
20200531054639 26 79 8.0 19.3 0.00 0.00 0.00 48 1014.2
20200531053058 26 75 9.7 19.3 0.00 0.00 0.00 48 1014.3
20200531051550 26 74 11.3 17.7 0.00 0.00 0.00 44 1014.4
20200531050050 26 72 9.7 19.3 0.00 0.00 0.00 43 1014.5
20200531044555 26 72 9.7 19.3 0.00 0.00 0.00 41 1014.6
20200531043219 27 80 9.7 17.7 0.00 0.00 0.00 39 1014.8
20200531041532 27 84 11.3 19.3 0.00 0.00 0.00 37 1015.1
20200531040039 27 76 9.7 16.1 0.00 0.00 0.00 35 1015.2
20200531034553 27 75 6.4 14.5 0.00 0.00 0.00 34 1015.5
20200531033017 27 78 8.0 14.5 0.00 0.00 0.00 34 1015.5
20200531031540 27 71 6.4 14.5 0.00 0.00 0.00 35 1015.6
20200531030016 27 86 0.0 0.0 0.00 0.00 0.00 32 1015.6
20200531024515 27 97 0.0 0.0 0.00 0.00 0.00 31 1015.4
20200531023017 28 102 0.0 11.3 0.00 0.00 0.00 27 1015.2
20200531021512 28 98 9.7 25.7 0.00 0.00 0.00 27 1015.1
20200531020022 28 117 11.3 24.1 0.00 0.00 0.00 28 1014.9
20200531014529 28 110 12.9 29.0 0.00 0.00 0.00 23 1014.7
20200531013015 28 116 14.5 25.7 0.00 0.00 0.00 20 1014.6
20200531011521 28 111 14.5 25.7 0.00 0.00 0.00 24 1014.6
20200531010025 28 126 14.5 24.1 0.00 0.00 0.00 30 1014.6
20200531003007 28 103 11.3 22.5 0.00 0.00 0.00 39 1014.6
20200531001507 28 140 11.3 19.3 0.00 0.00 0.00 43 1014.5
20200531000010 28 110 9.7 20.9 0.00 0.00 0.00 42 1014.4
20200530234533 28 134 11.3 19.3 0.00 0.00 0.00 38 1014.3
20200530233004 28 144 14.5 20.9 0.00 0.00 0.00 41 1014.2
20200530231504 28 140 8.0 20.9 0.00 0.00 0.00 42 1014.1
20200530230012 28 110 11.3 20.9 0.00 0.00 0.00 47 1014.0
20200530224501 28 94 12.9 24.1 0.00 0.00 0.00 52 1014.0
20200530223004 28 131 11.3 24.1 0.00 0.00 0.00 53 1013.8
20200530221505 28 108 12.9 22.5 0.00 0.00 0.00 56 1013.7
20200530220240 28 126 12.9 25.7 0.00 0.00 0.00 60 1013.6
20200530220002 28 120 14.5 25.7 0.00 0.00 0.00 60 1013.5
20200530214809 28 139 12.9 29.0 0.00 0.00 0.00 56 1013.7
20200530213201 28 141 11.3 22.5 0.00 0.00 0.00 51 1013.8
20200530211658 28 148 12.9 22.5 0.00 0.00 0.00 52 1013.9
20200530210334 28 116 11.3 24.1 0.00 0.00 0.00 46 1013.9
20200530204751 28 119 14.5 24.1 0.00 0.00 0.00 48 1013.9
20200530203237 29 97 17.7 24.1 0.00 0.00 0.00 46 1014.0
20200530201645 29 126 16.1 25.7 0.00 0.00 0.00 47 1014.0
20200530200218 29 104 14.5 24.1 0.00 0.00 0.00 48 1014.0
20200530194623 29 128 17.7 32.2 0.00 0.00 0.00 53 1013.9
20200530193147 29 121 17.7 27.4 0.00 0.00 0.00 52 1014.1
20200530191714 29 121 20.9 32.2 0.00 0.00 0.00 51 1014.1
20200530190118 29 106 17.7 29.0 0.00 0.00 0.00 48 1014.1
20200530184713 29 130 17.7 30.6 0.00 0.00 0.00 52 1014.1
20200530183136 29 124 14.5 27.4 0.00 0.00 0.00 50 1014.3
20200530181556 29 111 16.1 27.4 0.00 0.00 0.00 47 1014.5
20200530180155 29 117 16.1 27.4 0.00 0.00 0.00 51 1014.6
20200530174631 29 145 14.5 22.5 0.00 0.00 0.00 53 1014.7
20200530173123 30 164 8.0 25.7 0.00 0.00 0.00 53 1014.7
20200530171656 30 128 17.7 24.1 0.00 0.00 0.00 59 1014.8
20200530170056 30 120 12.9 25.7 0.00 0.00 0.00 57 1015.0
20200530164554 30 115 14.5 29.0 0.00 0.00 0.00 59 1015.0
20200530163130 30 123 14.5 22.5 0.00 0.00 0.00 58 1015.1
20200530161604 29 140 14.5 27.4 0.00 0.00 0.00 57 1015.2
20200530160039 29 116 16.1 25.7 0.00 0.00 0.00 54 1015.3
20200530154621 29 117 14.5 24.1 0.00 0.00 0.00 53 1015.5
20200530153136 29 132 12.9 22.5 0.00 0.00 0.00 53 1015.5
20200530151554 29 126 14.5 29.0 0.00 0.00 0.00 50 1015.5
20200530150041 29 133 16.1 27.4 0.00 0.00 0.00 52 1015.6
20200530144538 29 150 17.7 25.7 0.00 0.00 0.00 57 1015.8
20200530143047 29 153 12.9 25.7 0.00 0.00 0.00 56 1015.8
20200530141532 29 137 11.3 25.7 0.00 0.00 0.00 53 1015.8
20200530140024 28 129 14.5 24.1 0.00 0.00 0.00 53 1015.9
20200530134524 29 124 11.3 27.4 0.00 0.00 0.00 54 1016.0
20200530133016 28 106 14.5 24.1 0.00 0.00 0.00 52 1016.0
20200530131529 28 117 8.0 22.5 0.00 0.00 0.00 53 1016.0
20200530130007 28 120 12.9 24.1 0.00 0.00 0.00 54 1016.0
20200530124507 28 133 14.5 22.5 0.00 0.00 0.00 55 1016.1
20200530123002 28 119 9.7 20.9 0.00 0.00 0.00 52 1016.0
20200530121759 28 116 8.0 16.1 0.00 0.00 0.00 52 1016.0
20200530120257 27 94 11.3 20.9 0.00 0.00 0.00 50 1016.0
20200530114750 27 80 11.3 20.9 0.00 0.00 0.00 48 1016.0
20200530113225 27 101 11.3 20.9 0.00 0.00 0.00 44 1015.9
20200530111639 27 66 9.7 20.9 0.00 0.00 0.00 42 1015.7
20200530110127 27 75 14.5 19.3 0.00 0.00 0.00 41 1015.6
20200530104606 26 89 9.7 17.7 0.00 0.00 0.00 34 1015.5
20200530103053 26 87 8.0 14.5 0.00 0.00 0.00 30 1015.3
20200530101559 26 101 9.7 16.1 0.00 0.00 0.00 28 1015.0
20200530100106 26 79 6.4 16.1 0.00 0.00 0.00 29 1014.7
20200530094607 26 76 8.0 16.1 0.00 0.00 0.00 30 1014.7
20200530093102 26 71 9.7 17.7 0.00 0.00 0.00 31 1014.3
20200530091634 26 82 11.3 16.1 0.00 0.00 0.00 31 1014.1
20200530090042 26 73 8.0 14.5 0.00 0.00 0.00 29 1014.2
20200530084531 26 62 6.4 14.5 0.00 0.00 0.00 31 1014.1
20200530083108 26 69 6.4 12.9 0.00 0.00 0.00 30 1014.2
20200530081535 26 59 4.8 12.9 0.00 0.00 0.00 30 1014.2
20200530080032 26 62 4.8 9.7 0.00 0.00 0.00 29 1014.1
20200530074555 26 40 6.4 14.5 0.00 0.00 0.00 29 1014.1
20200530073044 26 70 4.8 12.9 0.00 0.00 0.00 26 1013.9
20200530071602 26 71 8.0 14.5 0.00 0.00 0.00 27 1014.0